Zurück zum Katalog

STARLINK-31505

AktivKommunikationVLEO
NORAD 59237·PAYLOAD·🇺🇸 United States

Gestartet Mar 16, 2024 von Cape Canaveral Space Force Station

Loading…

Nächste Überflüge (nächste 24 Stunden)

TLE

AktuellSource: CelesTrak SupGP

Epoche: Sep 15, 2026, 02:20 UTC

1 59237C 24049G   26258.09770833  .00005060  00000+0  18348-3 0  2580
2 59237  43.0027 153.9287 0001335 284.4608  51.2548 15.27536741    10

Verfolge STARLINK-31505 in Echtzeit mit AllMySat

Download on the App Store